PCSAT (NO-44)

Last updated on Sun Jun 21 2026 00:03:20 GMT+0000 (Coordinated Universal Time)

1 26931U 01043C 26171.44204659 .00000049 00000+0 49145-4 0 9999 2 26931 67.0502 235.8536 0006064 264.6719 95.3691 14.31957058290913
UTC large
Height (km)
Speed (km/s)
/
Latitude / Longitude
Inclination (degrees)
Orbital Period (minutes)
Azimuth
Elevation
Range (km)
Doppler Factor

Next 0 passes for location: London (51.5072 / 0.1276)

No passes found over London.
PCSAT (NO-44)